Stations météo

réclame
Mon MeteoGroup
Vlieland, Pays-Bas (6242): Température de l'air & dewpoint: 04.07.2020 16:00:00 - 10.07.2020 16:00:00 (CEST)Vlieland, Pays-Bas (6242): Température de l'air 5cm: 04.07.2020 16:00:00 - 10.07.2020 16:00:00 (CEST)Vlieland, Pays-Bas (6242): Vitesse du vent & gusts: 04.07.2020 16:00:00 - 10.07.2020 16:00:00 (CEST)Vlieland, Pays-Bas (6242): Direction du vent: 04.07.2020 16:00:00 - 10.07.2020 16:00:00 (CEST)Vlieland, Pays-Bas (6242): reduced air pressure: 04.07.2020 16:00:00 - 10.07.2020 16:00:00 (CEST)Vlieland, Pays-Bas (6242): visibility: 04.07.2020 16:00:00 - 10.07.2020 16:00:00 (CEST)
Date & Time tt [°C] td [°C] tt 5cm [°C] ff [km/h] ff [knt] fx [km/h] fx [knt] dd ppp [hPa] vv [km]
10.07.2020 16:00:00 15,8 9,7 18,1 26 14 32 18 NNW 1016,5 10
10.07.2020 15:00:00 15,6 9,5 17,5 28 15 36 19 NNW 1015,6 10
10.07.2020 14:00:00 15,3 9,5 17,6 26 14 36 19 NNW 1014,9 10
10.07.2020 13:00:00 15,6 11,0 16,3 24 13 32 18 N 1014,0 10
10.07.2020 12:00:00 14,0 10,0 15,3 24 13 - - N 1013,3 10
10.07.2020 11:00:00 13,8 9,7 14,6 28 15 36 19 N 1012,2 10
10.07.2020 10:00:00 13,1 10,3 13,4 29 16 40 21 N 1011,3 10
10.07.2020 09:00:00 12,9 11,7 13,0 31 17 43 23 N 1010,5 10
10.07.2020 08:00:00 12,5 11,8 12,9 34 18 47 25 NNE 1009,7 10
10.07.2020 07:00:00 12,4 11,7 12,7 39 21 47 25 NNE 1009,3 10
10.07.2020 06:00:00 12,6 12,2 12,9 37 20 47 25 NE 1008,9 10
10.07.2020 05:00:00 12,5 12,4 12,8 35 19 43 23 NE 1008,4 10
10.07.2020 04:00:00 12,2 12,2 12,6 26 14 32 18 NE 1009,0 10
10.07.2020 03:00:00 11,9 11,9 12,4 28 15 40 21 ENE 1009,1 10
10.07.2020 02:00:00 12,0 12,0 12,5 29 16 36 19 NE 1009,6 6
10.07.2020 01:00:00 12,1 12,1 12,4 29 16 40 21 ENE 1009,6 8
10.07.2020 00:00:00 12,0 12,0 12,6 26 14 40 21 ENE 1010,1 9
09.07.2020 23:00:00 12,4 12,4 13,0 24 13 36 19 NE 1010,3 6
09.07.2020 22:00:00 12,7 12,6 13,2 28 15 40 21 ENE 1010,1 10
09.07.2020 21:00:00 12,6 12,6 13,2 22 12 32 18 NE 1010,6 6
09.07.2020 20:00:00 13,1 13,1 13,7 21 11 32 18 E 1011,0 10
09.07.2020 19:00:00 12,9 12,9 13,6 26 14 32 18 E 1011,0 10
09.07.2020 18:00:00 13,3 13,0 14,0 24 13 36 19 E 1011,2 10
09.07.2020 17:00:00 13,2 13,1 13,8 28 15 36 19 E 1011,4 10
09.07.2020 16:00:00 13,0 13,0 13,8 35 19 47 25 E 1011,3 10
09.07.2020 15:00:00 12,8 12,8 13,7 37 20 47 25 E 1011,0 6
09.07.2020 14:00:00 12,9 12,9 13,8 37 20 47 25 ENE 1011,0 5
09.07.2020 13:00:00 13,2 13,2 14,2 39 21 54 29 E 1010,5 9
09.07.2020 12:00:00 12,8 12,8 13,5 42 23 50 27 E 1010,1 9
09.07.2020 11:00:00 12,7 12,7 13,3 39 21 50 27 ENE 1010,4 4,4
09.07.2020 10:00:00 12,3 12,3 13,0 34 18 43 23 E 1010,5 5
09.07.2020 09:00:00 12,2 12,2 12,8 34 18 40 21 E 1010,3 3,9
09.07.2020 08:00:00 12,1 12,1 12,7 29 16 36 19 E 1010,8 3,0
09.07.2020 07:00:00 12,1 12,1 12,6 28 15 32 18 E 1011,3 4,5
09.07.2020 06:00:00 12,3 12,3 12,8 28 15 36 19 E 1012,4 3,2
09.07.2020 05:00:00 12,3 11,9 12,8 28 15 32 18 E 1012,7 10
09.07.2020 04:00:00 12,4 11,4 12,7 26 14 36 19 E 1013,4 10
09.07.2020 03:00:00 12,7 10,8 13,0 24 13 32 18 E 1014,2 10
09.07.2020 02:00:00 13,7 10,1 14,1 24 13 29 16 E 1014,8 10
09.07.2020 01:00:00 13,9 10,0 14,4 22 12 29 16 E 1015,1 10
09.07.2020 00:00:00 14,1 10,4 14,5 21 11 29 16 E 1015,5 10
08.07.2020 23:00:00 14,0 10,3 14,2 16 9 22 12 ENE 1015,8 10
08.07.2020 22:00:00 13,9 10,0 14,3 16 9 22 12 NE 1015,8 10
08.07.2020 21:00:00 14,2 10,1 14,8 18 10 25 14 ENE 1015,7 10
08.07.2020 20:00:00 14,6 10,6 15,4 22 12 25 14 NE 1015,9 10
08.07.2020 19:00:00 16,0 10,9 17,2 22 12 25 14 NNE 1015,7 10
08.07.2020 18:00:00 15,5 10,8 17,7 21 11 25 14 NNE 1016,1 10
08.07.2020 17:00:00 16,1 11,2 18,6 18 10 29 16 NNE 1016,0 10
08.07.2020 16:00:00 15,7 11,0 17,9 13 7 25 14 E 1016,1 10
08.07.2020 15:00:00 16,5 11,9 20,0 8 4 22 12 NE 1016,0 10
08.07.2020 14:00:00 15,6 11,8 18,4 11 6 18 10 E 1015,6 10
08.07.2020 13:00:00 14,5 11,5 16,3 11 6 14 8 ESE 1015,7 10
08.07.2020 12:00:00 13,5 11,4 15,1 11 6 18 10 E 1015,4 10
08.07.2020 11:00:00 13,1 11,8 14,3 11 6 14 8 ESE 1015,2 10
08.07.2020 10:00:00 12,7 11,7 13,8 11 6 18 10 E 1014,9 10
08.07.2020 09:00:00 12,5 12,2 13,3 11 6 14 8 ESE 1014,6 10
08.07.2020 08:00:00 11,8 11,2 12,3 5 3 11 6 SE 1014,4 10
08.07.2020 07:00:00 11,9 11,4 12,2 8 4 11 6 SSE 1014,2 10
08.07.2020 06:00:00 11,6 11,4 11,8 5 3 7 4 SSE 1014,2 10
08.07.2020 05:00:00 11,4 11,4 11,9 4 2 11 6 SSE 1014,6 9
08.07.2020 04:00:00 12,0 11,3 12,3 8 4 22 12 S 1015,0 5
08.07.2020 03:00:00 12,7 10,4 12,4 9 5 14 8 SW 1015,5 10
08.07.2020 02:00:00 12,2 10,3 12,3 8 4 11 6 SSW 1015,8 10
08.07.2020 01:00:00 12,0 9,9 12,0 11 6 11 6 SW 1016,1 10
08.07.2020 00:00:00 11,8 10,9 11,9 4 2 18 10 WNW 1016,4 10
07.07.2020 23:00:00 12,2 10,2 12,3 11 6 22 12 WSW 1016,7 10
07.07.2020 22:00:00 12,3 10,4 12,5 21 11 25 14 W 1017,1 10
07.07.2020 21:00:00 13,0 10,2 13,2 21 11 25 14 W 1017,0 10
07.07.2020 20:00:00 13,9 9,8 14,5 26 14 32 18 WSW 1017,2 10
07.07.2020 19:00:00 14,3 10,2 15,0 26 14 36 19 W 1017,8 10
07.07.2020 18:00:00 14,6 9,8 15,5 26 14 36 19 W 1018,1 10
07.07.2020 17:00:00 14,9 9,5 16,3 29 16 47 25 W 1018,3 10
07.07.2020 16:00:00 15,8 9,4 17,4 37 20 43 23 W 1018,5 10
07.07.2020 15:00:00 16,2 9,8 17,8 39 21 47 25 W 1018,4 10
07.07.2020 14:00:00 15,7 9,0 17,5 37 20 43 23 W 1018,5 10
07.07.2020 13:00:00 15,2 9,0 16,8 37 20 47 25 W 1018,5 10
07.07.2020 12:00:00 15,9 7,8 17,8 35 19 43 23 W 1018,2 10
07.07.2020 11:00:00 15,5 10,6 16,7 34 18 40 21 W 1018,3 10
07.07.2020 10:00:00 15,8 11,3 17,6 29 16 47 25 W 1018,2 10
07.07.2020 09:00:00 16,8 12,2 16,8 29 16 40 21 WSW 1017,9 10
07.07.2020 08:00:00 14,7 10,8 15,4 31 17 40 21 WSW 1018,4 10
07.07.2020 07:00:00 14,1 10,4 14,5 26 14 32 18 WSW 1018,6 10
07.07.2020 06:00:00 14,0 10,6 14,2 22 12 29 16 W 1018,9 10
07.07.2020 05:00:00 13,5 9,8 13,7 22 12 25 14 WSW 1019,5 10
07.07.2020 04:00:00 13,2 9,1 13,0 21 11 29 16 W 1019,9 10
07.07.2020 03:00:00 12,8 9,0 12,6 24 13 32 18 W 1020,2 10
07.07.2020 02:00:00 13,1 9,0 12,9 21 11 32 18 W 1020,4 10
07.07.2020 01:00:00 13,0 8,5 13,2 26 14 36 19 WNW 1020,8 10
07.07.2020 00:00:00 13,3 8,6 13,4 29 16 36 19 WNW 1020,7 10
06.07.2020 23:00:00 13,3 8,0 13,3 28 15 36 19 WNW 1020,2 10
06.07.2020 22:00:00 13,5 9,5 13,8 28 15 40 21 NW 1019,7 10
06.07.2020 21:00:00 14,0 10,1 14,3 29 16 43 23 NW 1019,2 10
06.07.2020 20:00:00 14,4 10,4 15,3 34 18 47 25 NW 1018,5 10
06.07.2020 19:00:00 14,8 10,3 15,7 37 20 50 27 NW 1018,1 10
06.07.2020 18:00:00 14,5 11,0 15,5 41 22 50 27 WNW 1017,5 10
06.07.2020 17:00:00 15,4 10,7 17,1 42 23 54 29 WNW 1016,8 10
06.07.2020 16:00:00 16,3 10,9 17,8 48 26 54 29 WNW 1016,0 10
06.07.2020 15:00:00 16,3 11,2 18,2 46 25 58 31 WNW 1015,1 10
06.07.2020 14:00:00 15,8 10,2 17,8 46 25 58 31 WNW 1014,3 10
06.07.2020 13:00:00 15,6 10,6 16,5 46 25 58 31 WNW 1013,4 10
06.07.2020 12:00:00 15,6 9,9 16,7 48 26 58 31 WNW 1012,2 10
06.07.2020 11:00:00 14,3 9,3 15,6 46 25 61 33 WNW 1011,6 10
06.07.2020 10:00:00 14,5 10,0 15,7 48 26 61 33 WNW 1010,9 10
06.07.2020 09:00:00 14,0 9,5 14,0 52 28 61 33 W 1009,9 10
06.07.2020 08:00:00 14,1 9,7 14,4 52 28 61 33 W 1009,0 10
06.07.2020 07:00:00 14,0 10,0 14,3 54 29 72 39 W 1008,2 10
06.07.2020 06:00:00 14,1 9,7 14,2 59 32 72 39 W 1007,7 10
06.07.2020 05:00:00 14,2 9,5 14,6 61 33 79 43 W 1007,2 10
06.07.2020 04:00:00 14,4 9,6 14,5 61 33 83 45 W 1006,7 10
06.07.2020 03:00:00 14,9 9,3 14,9 54 29 68 37 W 1006,8 10
06.07.2020 02:00:00 14,7 10,0 14,7 46 25 72 39 W 1007,3 10
06.07.2020 01:00:00 13,6 10,1 13,2 55 30 79 43 W 1007,3 9
06.07.2020 00:00:00 15,4 11,1 15,4 26 14 36 19 SW 1006,8 10
05.07.2020 23:00:00 16,2 9,7 16,4 29 16 36 19 WSW 1007,2 10
05.07.2020 22:00:00 16,1 10,1 16,2 26 14 36 19 SW 1007,4 10
05.07.2020 21:00:00 16,3 9,3 16,6 28 15 36 19 WSW 1007,5 10
05.07.2020 20:00:00 16,9 9,8 17,3 26 14 36 19 WSW 1007,6 10
05.07.2020 19:00:00 16,6 11,7 17,4 35 19 50 27 W 1007,9 10
05.07.2020 18:00:00 18,1 11,0 18,9 37 20 47 25 WSW 1007,8 10
05.07.2020 17:00:00 18,6 11,0 20,8 34 18 43 23 WSW 1007,6 10
05.07.2020 16:00:00 17,7 12,0 19,9 37 20 54 29 W 1007,8 10
05.07.2020 15:00:00 17,8 15,0 19,0 44 24 61 33 WSW 1007,1 10
05.07.2020 14:00:00 18,0 15,7 19,4 50 27 68 37 WSW 1006,6 10
05.07.2020 13:00:00 17,4 15,5 18,1 55 30 68 37 SW 1005,8 10
05.07.2020 12:00:00 18,7 16,2 19,5 55 30 72 39 SW 1005,2 10
05.07.2020 11:00:00 17,8 15,9 18,8 59 32 76 41 SW 1004,8 9
05.07.2020 10:00:00 17,4 15,9 18,2 61 33 76 41 SW 1004,4 8
05.07.2020 09:00:00 17,1 16,0 17,4 63 34 79 43 SW 1003,9 8
05.07.2020 08:00:00 16,4 15,5 16,7 67 36 83 45 SW 1003,6 8
05.07.2020 07:00:00 16,4 15,5 16,7 59 32 79 43 SW 1003,7 10
05.07.2020 06:00:00 16,6 15,6 16,9 57 31 76 41 SW 1003,7 10
05.07.2020 05:00:00 16,6 15,8 16,8 54 29 65 35 SW 1004,5 10
05.07.2020 04:00:00 16,5 15,9 16,8 52 28 65 35 SW 1005,3 10
05.07.2020 03:00:00 16,6 16,0 16,8 46 25 61 33 SW 1005,9 10
05.07.2020 02:00:00 16,4 16,1 16,7 44 24 58 31 SW 1006,4 9
05.07.2020 01:00:00 16,2 16,2 16,5 42 23 54 29 SW 1007,1 6
05.07.2020 00:00:00 16,3 16,3 16,6 42 23 58 31 SW 1007,3 5
04.07.2020 23:00:00 16,4 16,3 16,8 44 24 54 29 SW 1007,5 7
04.07.2020 22:00:00 16,3 16,3 16,7 42 23 54 29 SW 1007,6 7
04.07.2020 21:00:00 16,4 16,3 16,7 42 23 54 29 SW 1008,0 5
04.07.2020 20:00:00 16,4 16,3 16,8 42 23 58 31 SW 1008,2 8
04.07.2020 19:00:00 16,5 16,2 17,0 48 26 61 33 SW 1008,7 10
04.07.2020 18:00:00 16,7 16,2 17,1 48 26 61 33 SW 1008,8 10
04.07.2020 17:00:00 16,7 16,4 17,1 48 26 61 33 SW 1009,1 8
04.07.2020 16:00:00 16,4 16,0 16,9 52 28 65 35 SW 1009,2 7

tt = Température de l'air
td = dewpoint
tt 5cm = Température de l'air 5cm
ff = Vitesse du vent
fx = gusts
dd = Direction du vent
ppp = reduced air pressure
vv = visibility

stations d'obs. à proximité